Weather History for Seward, AK

Change the Weather History Date:

Friday, December 6, 2013

  Actual Average Record
Temperature  
Mean Temperature 35 °F -  
Max Temperature 37 °F 30 °F 45 °F (2002)
Min Temperature 33 °F 22 °F -2 °F (1975)
Degree Days  
Heating Degree Days 30    
Moisture  
Dew Point 35 °F    
Average Humidity 98    
Maximum Humidity 100    
Minimum Humidity 93    
Precipitation  
Precipitation 0.02 in - - ()
Sea Level Pressure  
Sea Level Pressure 30.56 in    
Wind  
Wind Speed 1 mph (NNW)    
Max Wind Speed 6 mph    
Max Gust Speed -    
Visibility 3 miles    
Events      
Averages and records for this station are not official NWS values.
T = Trace of Precipitation, MM = Missing Value Source: NWS Daily Summary

Daily Weather History Graph

Daily Weather History Graph

Search for Another Location

Airport:

Trip Planner

Search our weather history database for the weather conditions in past years. The results will help you decide how hot, cold, wet, or windy it might be!

Date:

Astronomy

Dec. 06, 2013 Rise Set
Actual Time 9:44 AM AKST 3:53 PM AKST
Civil Twilight 8:47 AM AKST 4:49 PM AKST
Nautical Twilight 7:51 AM AKST 5:45 PM AKST
Astronomical Twilight 7:00 AM AKST 6:36 PM AKST
Moon 12:10 PM AKST (12/6) 9:28 PM AKST (12/6)
Length of Visible Light 8h 01m
Length of Day
6h 09m
Waxing Crescent, 20% of the Moon is Illuminated
Dec 6
Waxing Crescent
Dec 9
First Quarter
Dec 17
Full
Dec 25
Last Quarter
Jan 1
New

Hourly Weather History & Observations

Time (AKST) Temp. Windchill Dew Point Humidity Pressure Visibility Wind Dir Wind Speed Gust Speed Precip Events Conditions
12:53 AM 36.0 °F - 35.1 °F 97% 30.58 in 5.0 mi Calm Calm - N/A   Overcast
1:53 AM 36.0 °F 33.3 °F 35.1 °F 97% 30.58 in 5.0 mi North 3.5 mph - N/A   Overcast
2:36 AM 35.6 °F - 33.8 °F 93% 30.57 in 2.0 mi Calm Calm - N/A   Overcast
2:50 AM 35.6 °F - 33.8 °F 93% 30.58 in 3.0 mi Calm Calm - N/A   Overcast
3:13 AM 35.6 °F - 35.6 °F 100% 30.57 in 3.0 mi Calm Calm - N/A   Overcast
3:42 AM 35.6 °F - 33.8 °F 93% 30.58 in 2.5 mi Calm Calm - N/A   Overcast
3:53 AM 35.1 °F - 34.0 °F 96% 30.58 in 2.5 mi Calm Calm - N/A   Overcast
4:04 AM 35.6 °F - 35.6 °F 100% 30.57 in 3.0 mi Calm Calm - N/A   Overcast
4:22 AM 35.6 °F - 33.8 °F 93% 30.58 in 2.0 mi Calm Calm - N/A   Overcast
4:32 AM 35.6 °F - 33.8 °F 93% 30.57 in 1.5 mi Calm Calm - N/A   Overcast
4:53 AM 35.1 °F - 34.0 °F 96% 30.57 in 2.0 mi Calm Calm - 0.01 in   Overcast
5:13 AM 35.6 °F - 35.6 °F 100% 30.57 in 3.0 mi Calm Calm - N/A   Overcast
5:53 AM 36.0 °F 33.3 °F 35.1 °F 97% 30.58 in 4.0 mi NNW 3.5 mph - N/A   Overcast
6:53 AM 35.1 °F - 35.1 °F 100% 30.58 in 4.0 mi Calm Calm - N/A   Overcast
7:53 AM 36.0 °F - 35.1 °F 97% 30.58 in 7.0 mi Calm Calm - N/A   Overcast
8:53 AM 36.0 °F - 35.1 °F 97% 30.58 in 5.0 mi Calm Calm - N/A   Overcast
9:33 AM 35.6 °F - 35.6 °F 100% 30.57 in 4.0 mi Calm Calm - 0.01 in   Overcast
9:53 AM 36.0 °F - 35.1 °F 97% 30.58 in 5.0 mi Calm Calm - 0.01 in   Overcast
10:41 AM 35.6 °F - 35.6 °F 100% 30.58 in 2.5 mi Calm Calm - N/A   Overcast
10:53 AM 36.0 °F - 35.1 °F 97% 30.59 in 3.0 mi Calm Calm - N/A   Overcast
11:04 AM 35.6 °F - 35.6 °F 100% 30.59 in 2.5 mi Calm Calm - N/A   Overcast
11:12 AM 35.6 °F - 35.6 °F 100% 30.58 in 4.0 mi Calm Calm - N/A   Overcast
11:50 AM 35.6 °F - 35.6 °F 100% 30.58 in 1.8 mi Calm Calm - N/A   Overcast
11:53 AM 37.0 °F 34.5 °F 36.0 °F 96% 30.58 in 1.2 mi North 3.5 mph - N/A   Overcast
12:07 PM 37.4 °F 34.9 °F 35.6 °F 93% 30.58 in 3.0 mi NNW 3.5 mph - N/A   Overcast
12:32 PM 37.4 °F - 35.6 °F 93% 30.57 in 1.8 mi Calm Calm - N/A   Overcast
12:44 PM 37.4 °F - 35.6 °F 93% 30.57 in 3.0 mi Calm Calm - N/A   Overcast
12:53 PM 37.0 °F - 37.0 °F 100% 30.57 in 8.0 mi Calm Calm - N/A   Overcast
1:53 PM 37.0 °F 34.5 °F 36.0 °F 96% 30.57 in 4.0 mi NNW 3.5 mph - N/A   Overcast
2:53 PM 37.0 °F - 36.0 °F 96% 30.56 in 2.5 mi Calm Calm - N/A   Overcast
3:05 PM 37.4 °F - 35.6 °F 93% 30.55 in 4.0 mi Calm Calm - N/A   Overcast
3:20 PM 35.6 °F - 35.6 °F 100% 30.55 in 1.8 mi Calm Calm - N/A   Overcast
3:39 PM 37.4 °F - 35.6 °F 93% 30.55 in 3.0 mi Calm Calm - N/A   Overcast
3:53 PM 36.0 °F - 36.0 °F 100% 30.55 in 2.5 mi Calm Calm - N/A   Overcast
4:48 PM 35.6 °F - 35.6 °F 100% 30.55 in 3.0 mi Calm Calm - N/A   Overcast
4:53 PM 36.0 °F - 36.0 °F 100% 30.55 in 3.0 mi Calm Calm - N/A   Overcast
5:53 PM 36.0 °F - 36.0 °F 100% 30.55 in 2.5 mi Calm Calm - N/A   Overcast
6:20 PM 35.6 °F 32.8 °F 35.6 °F 100% 30.54 in 4.0 mi NNW 3.5 mph - N/A   Overcast
6:53 PM 36.0 °F - 36.0 °F 100% 30.54 in 5.0 mi Calm Calm - N/A   Overcast
7:53 PM 36.0 °F 33.3 °F 36.0 °F 100% 30.55 in 4.0 mi NNW 3.5 mph - N/A   Overcast
8:35 PM 35.6 °F 31.7 °F 35.6 °F 100% 30.54 in 3.0 mi North 4.6 mph - N/A   Overcast
8:43 PM 35.6 °F 30.7 °F 35.6 °F 100% 30.54 in 2.5 mi North 5.8 mph - N/A   Overcast
8:53 PM 36.0 °F 31.1 °F 36.0 °F 100% 30.54 in 2.0 mi North 5.8 mph - N/A   Overcast
9:28 PM 35.6 °F - 35.6 °F 100% 30.53 in 4.0 mi Calm Calm - N/A   Overcast
9:53 PM 36.0 °F - 36.0 °F 100% 30.53 in 10.0 mi Calm Calm - N/A   Overcast
10:17 PM 35.6 °F - 35.6 °F 100% 30.52 in 1.8 mi Calm Calm - N/A   Overcast
10:34 PM 33.8 °F 30.8 °F 33.8 °F 100% 30.51 in 2.5 mi North 3.5 mph - N/A   Overcast
10:50 PM 33.8 °F 29.6 °F 33.8 °F 100% 30.51 in 1.2 mi NNW 4.6 mph - N/A   Overcast
10:53 PM 34.0 °F 29.8 °F 34.0 °F 100% 30.51 in 1.2 mi North 4.6 mph - N/A   Overcast
11:01 PM 33.8 °F 30.8 °F 33.8 °F 100% 30.50 in 3.0 mi NNW 3.5 mph - N/A   Overcast
11:53 PM 34.0 °F - 34.0 °F 100% 30.49 in 10.0 mi Calm Calm - N/A   Overcast